Location: Auttagershofen
(48.1940°N, 10.0237°E)
Time: 20:49:54
(UTC+00:00)

Cosmos 1943 Rocket - Pass Details

Date: 18 January 2026
Orbit: 811 x 842 km, 71.0° (Epoch: 18 February)

Event Time Altitude Azimuth Distance (km) Brightness Sun altitude
Exits shadow 04:25:40 28° 194° (SSW) 1,484 3.3 -25.8°
Maximum altitude 04:28:38 75° 115° (ESE) 845 2.2 -25.3°
Drops below altitude 10° 04:34:08 10° 31° (NNE) 2,409 4.9 -24.4°
Sets 04:36:34 0° 29° (NNE) 3,347 5.6 -24.0°
